"Period start","avg(HW err(1)/warn(2) (#))","avg(Visibility (m))","avg(Weather code (#))","avg(Precip intensity (mm/h))","min(HW err(1)/warn(2) (#))","max(HW err(1)/warn(2) (#))","std(HW err(1)/warn(2) (#))","med(HW err(1)/warn(2) (#))","min(Visibility (m))","max(Visibility (m))","std(Visibility (m))","med(Visibility (m))","min(Weather code (#))","max(Weather code (#))","std(Weather code (#))","med(Weather code (#))","min(Precip intensity (mm/h))","max(Precip intensity (mm/h))","std(Precip intensity (mm/h))","med(Precip intensity (mm/h))"
2016-05-28 00:00:00,2,12721,20,0.00,2,2,0,2,2711,44356,13440,5897,20,20,0,20,0.00,0.00,0.00,0.00
2016-05-28 00:10:00,2,40340,12,0.00,2,2,0,2,19856,50000,10082,43710,0,20,10,20,0.00,0.00,0.00,0.00
2016-05-28 00:20:00,2,26605,0,0.00,2,2,0,2,17708,44645,7056,26237,0,0,0,0,0.00,0.00,0.00,0.00
2016-05-28 00:30:00,2,31483,0,0.00,2,2,0,2,18029,47773,9313,32410,0,0,0,0,0.00,0.00,0.00,0.00
2016-05-28 00:40:00,2,48709,0,0.00,2,2,0,2,42821,50000,2195,49862,0,0,0,0,0.00,0.00,0.00,0.00
2016-05-28 00:50:00,2,43056,0,0.00,2,2,0,2,33548,50000,6013,44348,0,0,0,0,0.00,0.00,0.00,0.00
2016-05-28 01:00:00,2,35434,0,0.00,2,2,0,2,25352,43542,5094,35646,0,0,0,0,0.00,0.00,0.00,0.00
2016-05-28 01:10:00,2,28057,0,0.00,2,2,0,2,15741,41360,7240,28092,0,0,0,0,0.00,0.00,0.00,0.00
2016-05-28 01:20:00,2,25936,0,0.00,2,2,0,2,18563,31415,3789,25191,0,0,0,0,0.00,0.00,0.00,0.00
2016-05-28 01:30:00,2,40735,0,0.00,2,2,0,2,21506,50000,8261,40796,0,0,0,0,0.00,0.00,0.00,0.00
2016-05-28 01:40:00,2,41034,0,0.00,2,2,0,2,32866,50000,5258,39609,0,0,0,0,0.00,0.00,0.00,0.00
2016-05-28 01:50:00,2,41439,0,0.00,2,2,0,2,30351,50000,6309,40083,0,0,0,0,0.00,0.00,0.00,0.00
2016-05-28 02:00:00,2,40696,0,0.00,2,2,0,2,34210,48966,4975,39342,0,0,0,0,0.00,0.00,0.00,0.00
2016-05-28 02:10:00,2,40990,0,0.00,2,2,0,2,26092,49673,6764,41868,0,0,0,0,0.00,0.00,0.00,0.00
2016-05-28 02:20:00,2,47956,0,0.00,2,2,0,2,42160,50000,2631,49073,0,0,0,0,0.00,0.00,0.00,0.00
2016-05-28 02:30:00,2,46693,0,0.00,2,2,0,2,35102,50000,4795,49356,0,0,0,0,0.00,0.00,0.00,0.00
2016-05-28 02:40:00,2,48890,0,0.00,2,2,0,2,45722,50000,1619,50000,0,0,0,0,0.00,0.00,0.00,0.00
2016-05-28 02:50:00,2,47283,0,0.00,2,2,0,2,35679,50000,4468,49512,0,0,0,0,0.00,0.00,0.00,0.00
2016-05-28 03:00:00,2,45591,0,0.00,2,2,0,2,35210,50000,5338,49205,0,0,0,0,0.00,0.00,0.00,0.00
2016-05-28 03:10:00,2,47591,0,0.00,2,2,0,2,43245,50000,2545,48182,0,0,0,0,0.00,0.00,0.00,0.00
2016-05-28 03:20:00,2,40579,0,0.00,2,2,0,2,32777,48314,5342,41212,0,0,0,0,0.00,0.00,0.00,0.00
2016-05-28 03:30:00,2,46366,0,0.00,2,2,0,2,33575,50000,5022,49178,0,0,0,0,0.00,0.00,0.00,0.00
2016-05-28 03:40:00,2,49411,0,0.00,2,2,0,2,47640,50000,858,50000,0,0,0,0,0.00,0.00,0.00,0.00
2016-05-28 03:50:00,2,47705,0,0.00,2,2,0,2,43995,50000,2409,48752,0,0,0,0,0.00,0.00,0.00,0.00
2016-05-28 04:00:00,2,49786,0,0.00,2,2,0,2,48141,50000,555,50000,0,0,0,0,0.00,0.00,0.00,0.00
2016-05-28 04:10:00,2,48675,0,0.00,2,2,0,2,43759,50000,2368,50000,0,0,0,0,0.00,0.00,0.00,0.00
2016-05-28 04:20:00,2,48994,0,0.00,2,2,0,2,47058,50000,1058,49058,0,0,0,0,0.00,0.00,0.00,0.00
2016-05-28 04:30:00,2,41246,0,0.00,2,2,0,2,33286,50000,6270,39114,0,0,0,0,0.00,0.00,0.00,0.00
2016-05-28 04:40:00,2,35063,0,0.00,2,2,0,2,24824,50000,6948,33455,0,0,0,0,0.00,0.00,0.00,0.00
2016-05-28 04:50:00,2,43286,0,0.00,2,2,0,2,35920,50000,4758,44381,0,0,0,0,0.00,0.00,0.00,0.00
2016-05-28 05:00:00,2,41595,0,0.00,2,2,0,2,21521,50000,9873,45530,0,0,0,0,0.00,0.00,0.00,0.00
2016-05-28 05:10:00,2,41679,0,0.00,2,2,0,2,32960,48843,5248,42612,0,0,0,0,0.00,0.00,0.00,0.00
2016-05-28 05:20:00,2,40062,0,0.00,2,2,0,2,31898,48065,4425,40882,0,0,0,0,0.00,0.00,0.00,0.00
2016-05-28 05:30:00,2,39231,0,0.00,2,2,0,2,32167,48906,5203,37610,0,0,0,0,0.00,0.00,0.00,0.00
2016-05-28 05:40:00,2,48981,0,0.00,2,2,0,2,44208,50000,1889,50000,0,0,0,0,0.00,0.00,0.00,0.00
2016-05-28 05:50:00,2,48674,0,0.00,2,2,0,2,42447,50000,2460,50000,0,0,0,0,0.00,0.00,0.00,0.00
2016-05-28 06:00:00,2,46992,0,0.00,2,2,0,2,38565,50000,3776,49314,0,0,0,0,0.00,0.00,0.00,0.00
2016-05-28 06:10:00,2,46285,0,0.00,2,2,0,2,29595,50000,6409,49456,0,0,0,0,0.00,0.00,0.00,0.00
2016-05-28 06:20:00,2,44605,0,0.00,2,2,0,2,36236,50000,4669,44450,0,0,0,0,0.00,0.00,0.00,0.00
2016-05-28 06:30:00,2,39833,0,0.00,2,2,0,2,31413,48889,4172,39176,0,0,0,0,0.00,0.00,0.00,0.00
2016-05-28 06:40:00,2,46208,0,0.00,2,2,0,2,35837,50000,4489,47510,0,0,0,0,0.00,0.00,0.00,0.00
2016-05-28 06:50:00,2,47519,0,0.00,2,2,0,2,37796,50000,3523,48426,0,0,0,0,0.00,0.00,0.00,0.00
2016-05-28 07:00:00,2,44435,0,0.00,2,2,0,2,35144,50000,5383,46102,0,0,0,0,0.00,0.00,0.00,0.00
2016-05-28 07:10:00,2,46608,0,0.00,2,2,0,2,33140,50000,5693,50000,0,0,0,0,0.00,0.00,0.00,0.00
2016-05-28 07:20:00,2,46829,0,0.00,2,2,0,2,41909,50000,2434,47290,0,0,0,0,0.00,0.00,0.00,0.00
2016-05-28 07:30:00,2,47001,0,0.00,2,2,0,2,42919,50000,2769,46838,0,0,0,0,0.00,0.00,0.00,0.00
2016-05-28 07:40:00,2,47967,0,0.00,2,2,0,2,42609,50000,2445,48808,0,0,0,0,0.00,0.00,0.00,0.00
2016-05-28 07:50:00,2,48382,0,0.00,2,2,0,2,42624,50000,2727,50000,0,0,0,0,0.00,0.00,0.00,0.00
2016-05-28 08:00:00,2,47920,0,0.00,2,2,0,2,43219,50000,2360,48984,0,0,0,0,0.00,0.00,0.00,0.00
2016-05-28 08:10:00,2,48472,0,0.00,2,2,0,2,45280,50000,1765,49275,0,0,0,0,0.00,0.00,0.00,0.00
2016-05-28 08:20:00,2,48929,0,0.00,2,2,0,2,44413,50000,1710,49961,0,0,0,0,0.00,0.00,0.00,0.00
2016-05-28 08:30:00,2,47682,0,0.00,2,2,0,2,40789,50000,2847,48514,0,0,0,0,0.00,0.00,0.00,0.00
2016-05-28 08:40:00,2,48727,0,0.00,2,2,0,2,46385,50000,1343,49018,0,0,0,0,0.00,0.00,0.00,0.00
2016-05-28 08:50:00,2,48084,0,0.00,2,2,0,2,42520,50000,2758,50000,0,0,0,0,0.00,0.00,0.00,0.00
2016-05-28 09:00:00,2,48925,0,0.00,2,2,0,2,44228,50000,2157,50000,0,0,0,0,0.00,0.00,0.00,0.00
2016-05-28 09:10:00,2,48933,0,0.00,2,2,0,2,43827,50000,1850,50000,0,0,0,0,0.00,0.00,0.00,0.00
2016-05-28 09:20:00,2,48119,0,0.00,2,2,0,2,40020,50000,3072,50000,0,0,0,0,0.00,0.00,0.00,0.00
2016-05-28 09:30:00,2,49331,0,0.00,2,2,0,2,45074,50000,1510,50000,0,0,0,0,0.00,0.00,0.00,0.00
2016-05-28 09:40:00,2,49620,0,0.00,2,2,0,2,46198,50000,1141,50000,0,0,0,0,0.00,0.00,0.00,0.00
2016-05-28 09:50:00,2,49537,0,0.00,2,2,0,2,45368,50000,1390,50000,0,0,0,0,0.00,0.00,0.00,0.00
2016-05-28 10:00:00,2,50000,0,0.00,2,2,0,2,50000,50000,0,50000,0,0,0,0,0.00,0.00,0.00,0.00
2016-05-28 10:10:00,2,49595,0,0.00,2,2,0,2,47844,50000,663,50000,0,0,0,0,0.00,0.00,0.00,0.00
2016-05-28 10:20:00,2,48042,0,0.00,2,2,0,2,41692,50000,2685,49572,0,0,0,0,0.00,0.00,0.00,0.00
2016-05-28 10:30:00,2,49728,0,0.00,2,2,0,2,47282,50000,815,50000,0,0,0,0,0.00,0.00,0.00,0.00
2016-05-28 10:40:00,2,49909,0,0.00,2,2,0,2,49089,50000,273,50000,0,0,0,0,0.00,0.00,0.00,0.00
2016-05-28 10:50:00,2,48416,0,0.00,2,2,0,2,43645,50000,2189,49494,0,0,0,0,0.00,0.00,0.00,0.00
2016-05-28 11:00:00,2,49728,0,0.00,2,2,0,2,48601,50000,494,50000,0,0,0,0,0.00,0.00,0.00,0.00
2016-05-28 11:10:00,2,49505,0,0.00,2,2,0,2,47829,50000,831,50000,0,0,0,0,0.00,0.00,0.00,0.00
2016-05-28 11:20:00,2,49670,0,0.00,2,2,0,2,47786,50000,666,50000,0,0,0,0,0.00,0.00,0.00,0.00
2016-05-28 11:30:00,2,49272,0,0.00,2,2,0,2,42715,50000,2186,50000,0,0,0,0,0.00,0.00,0.00,0.00
2016-05-28 11:40:00,2,46992,0,0.00,2,2,0,2,42215,50000,2661,47503,0,0,0,0,0.00,0.00,0.00,0.00
2016-05-28 11:50:00,2,46646,0,0.00,2,2,0,2,39738,50000,3066,47080,0,0,0,0,0.00,0.00,0.00,0.00
2016-05-28 12:00:00,2,46719,0,0.00,2,2,0,2,40115,50000,3559,48026,0,0,0,0,0.00,0.00,0.00,0.00
2016-05-28 12:10:00,2,46348,0,0.00,2,2,0,2,39327,50000,3645,47232,0,0,0,0,0.00,0.00,0.00,0.00
2016-05-28 12:20:00,2,44150,0,0.00,2,2,0,2,34746,49980,5096,46077,0,0,0,0,0.00,0.00,0.00,0.00
2016-05-28 12:30:00,2,33087,0,0.00,2,2,0,2,24065,42945,5749,33844,0,0,0,0,0.00,0.00,0.00,0.00
2016-05-28 12:40:00,2,26879,0,0.00,2,2,0,2,23169,34865,3447,26100,0,0,0,0,0.00,0.00,0.00,0.00
2016-05-28 12:50:00,2,35240,0,0.00,2,2,0,2,23610,43187,6284,35634,0,0,0,0,0.00,0.00,0.00,0.00
2016-05-28 13:00:00,2,20905,0,0.00,2,2,0,2,15027,27478,4022,19012,0,0,0,0,0.00,0.00,0.00,0.00
2016-05-28 13:10:00,2,9297,2,0.00,2,2,0,2,4498,22025,5137,7514,0,10,4,0,0.00,0.00,0.00,0.00
2016-05-28 13:20:00,2,6743,10,0.00,2,2,0,2,2809,14359,3547,5172,10,10,0,10,0.00,0.00,0.00,0.00
2016-05-28 13:30:00,2,3590,10,0.00,2,2,0,2,1037,9028,2518,3038,10,10,0,10,0.00,0.00,0.00,0.00
2016-05-28 13:40:00,2,5418,10,0.00,2,2,0,2,2261,9586,2245,4877,10,10,0,10,0.00,0.00,0.00,0.00
2016-05-28 13:50:00,2,2380,10,0.00,2,2,0,2,1326,4368,912,2104,10,10,0,10,0.00,0.00,0.00,0.00
2016-05-28 14:00:00,2,3539,10,0.00,2,2,0,2,1656,7993,1800,3064,10,10,0,10,0.00,0.00,0.00,0.00
2016-05-28 14:10:00,2,554,24,0.00,2,2,0,2,314,1560,349,446,10,34,12,34,0.00,0.00,0.00,0.00
2016-05-28 14:20:00,2,432,34,0.00,2,2,0,2,376,484,38,428,34,34,0,34,0.00,0.00,0.00,0.00
2016-05-28 14:30:00,2,2716,34,0.00,2,2,0,2,505,9309,2547,1880,34,34,0,34,0.00,0.00,0.00,0.00
2016-05-28 14:40:00,2,5883,21,0.00,2,2,0,2,434,14228,5446,4596,20,34,4,20,0.00,0.00,0.00,0.00
2016-05-28 14:50:00,2,4083,33,0.00,2,2,0,2,470,15045,4655,2536,30,34,2,34,0.00,0.00,0.00,0.00
2016-05-28 15:00:00,2,6037,31,0.00,2,2,0,2,3580,9391,1950,5378,31,31,0,31,0.00,0.00,0.00,0.00
2016-05-28 15:10:00,2,3931,31,0.00,2,2,0,2,2680,5252,732,3887,31,31,0,31,0.00,0.00,0.00,0.00
2016-05-28 15:20:00,2,1636,26,0.00,2,2,0,2,643,2885,808,1686,20,31,6,26,0.00,0.00,0.00,0.00
2016-05-28 15:30:00,2,1282,42,0.35,2,2,0,2,782,1989,363,1191,20,67,18,41,0.00,1.10,0.41,0.17
2016-05-28 15:40:00,2,2849,20,0.00,2,2,0,2,1912,4000,709,2732,20,20,0,20,0.00,0.00,0.00,0.00
2016-05-28 15:50:00,2,1480,40,1.04,2,2,0,2,556,2933,755,1301,20,67,16,41,0.00,3.80,1.15,0.80
2016-05-28 16:00:00,2,1839,62,0.92,2,2,0,2,611,2947,857,1976,41,67,10,67,0.05,2.50,0.84,0.65
2016-05-28 16:10:00,2,2154,42,0.34,2,2,0,2,1351,3356,564,1983,20,67,18,41,0.00,1.70,0.50,0.15
2016-05-28 16:20:00,2,3382,34,0.40,2,2,0,2,821,7960,2127,2776,20,67,22,20,0.00,3.15,0.93,0.00
2016-05-28 16:30:00,2,2554,49,0.12,2,2,0,2,1019,6432,1507,2100,20,77,20,41,0.00,0.60,0.19,0.05
2016-05-28 16:40:00,2,1796,51,1.10,2,2,0,2,999,2953,597,1742,20,77,22,41,0.00,4.10,1.39,0.40
2016-05-28 16:50:00,2,819,66,0.89,2,2,0,2,522,1238,250,804,61,67,2,67,0.20,1.75,0.48,0.92
2016-05-28 17:00:00,2,1619,61,1.01,2,2,0,2,1025,1992,286,1638,61,61,0,61,0.20,2.80,0.91,0.50
2016-05-28 17:10:00,2,2291,68,0.10,2,2,0,2,1726,3151,445,2190,61,77,8,66,0.00,0.45,0.13,0.05
2016-05-28 17:20:00,2,3009,65,0.04,2,2,0,2,2379,3656,429,3026,20,77,23,77,0.00,0.10,0.04,0.03
2016-05-28 17:30:00,2,3553,24,0.08,2,2,0,2,1677,6877,1654,3238,20,41,8,20,0.00,0.50,0.17,0.00
2016-05-28 17:40:00,2,2414,50,0.10,2,2,0,2,1577,4630,945,1982,20,77,23,54,0.00,0.35,0.14,0.00
2016-05-28 17:50:00,2,1895,20,0.00,2,2,0,2,1572,2572,305,1815,20,20,0,20,0.00,0.00,0.00,0.00
2016-05-28 18:00:00,2,2768,20,0.00,2,2,0,2,2020,3759,577,2682,20,20,0,20,0.00,0.00,0.00,0.00
2016-05-28 18:10:00,2,2539,10,0.00,2,2,0,2,1748,3722,620,2333,10,10,0,10,0.00,0.00,0.00,0.00
2016-05-28 18:20:00,2,2646,10,0.00,2,2,0,2,1270,4963,1075,2473,10,10,0,10,0.00,0.00,0.00,0.00
2016-05-28 18:30:00,2,2117,32,0.06,2,2,0,2,1275,4046,930,1829,10,41,14,41,0.00,0.20,0.07,0.03
2016-05-28 18:40:00,2,1291,53,0.56,2,2,0,2,1088,1696,211,1209,41,67,12,51,0.05,1.80,0.62,0.28
2016-05-28 18:50:00,2,2506,56,0.42,2,2,0,2,1715,3843,721,2192,52,61,4,52,0.00,1.30,0.38,0.40
2016-05-28 19:00:00,2,2926,44,0.02,2,2,0,2,1968,4086,615,2906,10,77,34,44,0.00,0.05,0.02,0.00
2016-05-28 19:10:00,2,3045,10,0.00,2,2,0,2,2287,4035,580,3034,10,10,0,10,0.00,0.00,0.00,0.00
2016-05-28 19:20:00,2,3469,10,0.00,2,2,0,2,2234,5579,957,3185,10,10,0,10,0.00,0.00,0.00,0.00
2016-05-28 19:30:00,2,5287,10,0.00,2,2,0,2,2557,11389,2840,4381,10,10,0,10,0.00,0.00,0.00,0.00
2016-05-28 19:40:00,2,3945,10,0.00,2,2,0,2,2310,5700,877,3981,10,10,0,10,0.00,0.00,0.00,0.00
2016-05-28 19:50:00,2,3405,10,0.00,2,2,0,2,1598,7009,1368,3178,10,10,0,10,0.00,0.00,0.00,0.00
2016-05-28 20:00:00,2,4659,10,0.00,2,2,0,2,2445,7913,1952,4199,10,10,0,10,0.00,0.00,0.00,0.00
2016-05-28 20:10:00,2,3687,10,0.00,2,2,0,2,2626,5867,847,3434,10,10,0,10,0.00,0.00,0.00,0.00
2016-05-28 20:20:00,2,4762,10,0.00,2,2,0,2,2643,7474,1836,4028,10,10,0,10,0.00,0.00,0.00,0.00
2016-05-28 20:30:00,2,4624,10,0.00,2,2,0,2,948,9843,3139,3438,10,10,0,10,0.00,0.00,0.00,0.00
2016-05-28 20:40:00,2,2304,10,0.00,2,2,0,2,1241,5862,1324,1908,10,10,0,10,0.00,0.00,0.00,0.00
2016-05-28 20:50:00,2,794,24,0.00,2,2,0,2,480,1381,334,648,10,34,12,34,0.00,0.00,0.00,0.00
2016-05-28 21:00:00,2,568,34,0.00,2,2,0,2,327,1038,248,466,34,34,0,34,0.00,0.00,0.00,0.00
2016-05-28 21:10:00,2,1130,34,0.00,2,2,0,2,232,2740,889,868,34,34,0,34,0.00,0.00,0.00,0.00
2016-05-28 21:20:00,2,220,34,0.00,2,2,0,2,184,313,34,210,34,34,0,34,0.00,0.00,0.00,0.00
2016-05-28 21:30:00,2,261,34,0.00,2,2,0,2,196,334,39,262,34,34,0,34,0.00,0.00,0.00,0.00
2016-05-28 21:40:00,2,190,34,0.00,2,2,0,2,164,229,19,186,34,34,0,34,0.00,0.00,0.00,0.00
2016-05-28 21:50:00,2,169,34,0.00,2,2,0,2,149,201,16,166,34,34,0,34,0.00,0.00,0.00,0.00
2016-05-28 22:00:00,2,172,34,0.00,2,2,0,2,160,230,20,163,34,34,0,34,0.00,0.00,0.00,0.00
2016-05-28 22:10:00,2,504,34,0.00,2,2,0,2,249,1198,293,407,33,34,0,34,0.00,0.00,0.00,0.00
2016-05-28 22:20:00,2,472,33,0.00,2,2,0,2,222,652,163,520,32,33,0,33,0.00,0.00,0.00,0.00
2016-05-28 22:30:00,2,1162,32,0.00,2,2,0,2,639,2217,431,1054,32,32,0,32,0.00,0.00,0.00,0.00
2016-05-28 22:40:00,2,516,32,0.00,2,2,0,2,356,792,127,516,30,32,1,32,0.00,0.00,0.00,0.00
2016-05-28 22:50:00,2,1085,32,0.00,2,2,0,2,254,2327,628,832,32,32,0,32,0.00,0.00,0.00,0.00
2016-05-28 23:00:00,2,660,32,0.00,2,2,0,2,469,1101,196,584,32,32,0,32,0.00,0.00,0.00,0.00
2016-05-28 23:10:00,2,2525,30,0.00,2,2,0,2,964,6681,1646,2528,20,32,5,32,0.00,0.00,0.00,0.00
2016-05-28 23:20:00,2,1811,22,0.00,2,2,0,2,492,9692,2670,859,20,32,4,20,0.00,0.00,0.00,0.00
2016-05-28 23:30:00,2,537,32,0.00,2,2,0,2,464,648,72,491,32,33,0,32,0.00,0.00,0.00,0.00
2016-05-28 23:40:00,2,1621,34,0.03,2,2,0,2,609,3424,915,1112,33,40,2,33,0.00,0.25,0.08,0.00
2016-05-28 23:50:00,2,34623,28,0.01,2,2,0,2,10831,49502,13760,41251,20,51,13,20,0.00,0.15,0.05,0.00
